GPS BIIR-17M

Last updated on Thu Jul 10 2025 00:02:32 GMT+0000 (Coordinated Universal Time)

1 32260U 07047A 25189.70508179 -.00000039 00000+0 00000+0 0 9994 2 32260 53.8418 94.2478 0162321 82.0272 279.8310 2.00571222129928
UTC large
Height (km)
Speed (km/s)
/
Latitude / Longitude
Inclination (degrees)
Orbital Period (minutes)
Azimuth
Elevation
Range (km)
Doppler Factor

Next 0 passes for location: London (51.5072 / 0.1276)

Sorry there are no passes over London.